Location: 22
(39.7117°N, 89.5929°W)
Time: 19:27:48
(UTC-05:00)

Vanguard 3 - Pass Details

Date: 30 January 2023
Orbit: 508 x 3249 km, 33.4° (Epoch: 30 March)

Event Time Altitude Azimuth Distance (km) Brightness Sun altitude
Rises 01:43:28 0° 281° (WNW) 6,679 - -60.3°
Reaches altitude 10° 01:47:59 10° 275° (W) 5,893 - -59.7°
Maximum altitude 02:05:07 42° 214° (SW) 4,100 - -57.0°
Exits shadow 02:18:38 17° 156° (SSE) 5,118 11.1 -54.8°
Drops below altitude 10° 02:21:13 10° 151° (SSE) 5,517 11.3 -54.4°
Sets 02:25:19 0° 144° (SE) 6,232 11.7 -53.7°
